Time,TemperatureF,DewpointF,PressureIn,WindDirection,WindDirectionDegrees,WindSpeedMPH,WindSpeedGustMPH,Humidity,HourlyPrecipIn,Conditions,Clouds,dailyrainin,SolarRadiationWatts/m^2,SoftwareType,DateUTC
2017-06-26 00:04:00,77.4,49.1,29.96,NW,304,4.9,12.0,37,0.00,,,0.00,0.0,meteobridge,2017-06-26 04:04:00,
2017-06-26 00:09:00,77.4,49.1,29.96,WNW,293,12.1,17.0,37,0.00,,,0.00,0.0,meteobridge,2017-06-26 04:09:00,
2017-06-26 00:14:00,77.0,49.5,29.96,NNW,327,16.1,20.0,38,0.00,,,0.00,0.0,meteobridge,2017-06-26 04:14:00,
2017-06-26 00:19:00,75.9,50.5,29.97,NNW,344,17.0,27.0,41,0.00,,,0.00,0.0,meteobridge,2017-06-26 04:19:00,
2017-06-26 00:24:00,74.7,50.7,29.97,WNW,300,14.1,22.0,43,0.00,,,0.00,0.0,meteobridge,2017-06-26 04:24:00,
2017-06-26 00:29:00,73.6,50.9,29.97,NNW,339,14.1,21.0,45,0.00,,,0.00,0.0,meteobridge,2017-06-26 04:29:00,
2017-06-26 00:34:00,73.0,51.1,29.98,North,354,10.1,17.0,46,0.00,,,0.00,0.0,meteobridge,2017-06-26 04:34:00,
2017-06-26 00:39:00,72.7,51.3,29.98,NNW,337,8.9,15.0,47,0.00,,,0.00,0.0,meteobridge,2017-06-26 04:39:00,
2017-06-26 00:45:00,72.5,51.1,29.98,North,349,10.1,17.0,47,0.00,,,0.00,0.0,meteobridge,2017-06-26 04:45:00,
2017-06-26 00:50:00,72.1,50.7,29.99,North,8,10.1,14.0,47,0.00,,,0.00,0.0,meteobridge,2017-06-26 04:50:00,
2017-06-26 00:55:00,72.1,50.7,29.99,North,6,8.1,11.0,47,0.00,,,0.00,0.0,meteobridge,2017-06-26 04:55:00,
2017-06-26 01:00:00,72.0,50.0,29.99,NNE,15,6.9,14.0,46,0.00,,,0.00,0.0,meteobridge,2017-06-26 05:00:00,
2017-06-26 01:05:00,71.4,49.6,29.99,NNE,33,4.0,16.0,46,0.00,,,0.00,0.0,meteobridge,2017-06-26 05:05:00,
2017-06-26 01:10:00,71.2,49.5,29.99,North,2,4.0,21.0,46,0.00,,,0.00,0.0,meteobridge,2017-06-26 05:10:00,
2017-06-26 01:15:00,71.1,49.3,29.99,North,349,12.1,20.0,46,0.00,,,0.00,0.0,meteobridge,2017-06-26 05:15:00,
2017-06-26 01:20:00,71.1,49.3,29.99,NNW,344,12.1,16.0,46,0.00,,,0.00,0.0,meteobridge,2017-06-26 05:20:00,
2017-06-26 01:25:00,70.7,48.9,29.99,North,7,17.9,20.0,46,0.00,,,0.00,0.0,meteobridge,2017-06-26 05:25:00,
2017-06-26 01:30:00,70.5,49.3,29.98,North,349,11.0,19.0,47,0.00,,,0.00,0.0,meteobridge,2017-06-26 05:30:00,
2017-06-26 01:35:00,70.3,49.1,29.98,NNE,31,8.9,18.0,47,0.00,,,0.00,0.0,meteobridge,2017-06-26 05:35:00,
2017-06-26 01:40:00,70.2,48.9,29.98,NNE,13,8.9,14.0,47,0.00,,,0.00,0.0,meteobridge,2017-06-26 05:40:00,
2017-06-26 01:45:00,70.2,49.6,29.99,NNW,344,6.9,10.0,48,0.00,,,0.00,0.0,meteobridge,2017-06-26 05:45:00,
2017-06-26 01:50:00,70.0,49.5,29.98,NE,50,6.9,8.0,48,0.00,,,0.00,0.0,meteobridge,2017-06-26 05:50:00,
2017-06-26 01:55:00,70.0,49.5,29.98,NNE,25,6.9,13.0,48,0.00,,,0.00,0.0,meteobridge,2017-06-26 05:55:00,
2017-06-26 02:00:00,69.6,49.1,29.98,NNE,18,8.1,16.0,48,0.00,,,0.00,0.0,meteobridge,2017-06-26 06:00:00,
2017-06-26 02:05:00,69.6,49.1,29.98,NNE,28,8.1,14.0,48,0.00,,,0.00,0.0,meteobridge,2017-06-26 06:05:00,
2017-06-26 02:10:00,69.6,49.6,29.98,NNE,25,6.0,10.0,49,0.00,,,0.00,0.0,meteobridge,2017-06-26 06:10:00,
2017-06-26 02:15:00,69.4,49.5,29.98,NNE,17,4.9,9.0,49,0.00,,,0.00,0.0,meteobridge,2017-06-26 06:15:00,
2017-06-26 02:20:00,69.3,49.3,29.98,North,6,2.9,10.0,49,0.00,,,0.00,0.0,meteobridge,2017-06-26 06:20:00,
2017-06-26 02:25:00,69.3,49.3,29.98,North,6,6.9,8.0,49,0.00,,,0.00,0.0,meteobridge,2017-06-26 06:25:00,
2017-06-26 02:30:00,69.3,49.3,29.98,NNE,12,0.9,9.0,49,0.00,,,0.00,0.0,meteobridge,2017-06-26 06:30:00,
2017-06-26 02:35:00,69.3,49.3,29.98,NNE,24,4.0,9.0,49,0.00,,,0.00,0.0,meteobridge,2017-06-26 06:35:00,
2017-06-26 02:40:00,69.3,49.3,29.98,NNE,31,0.9,5.0,49,0.00,,,0.00,0.0,meteobridge,2017-06-26 06:40:00,
2017-06-26 02:45:00,69.3,49.3,29.98,NE,50,2.9,6.0,49,0.00,,,0.00,0.0,meteobridge,2017-06-26 06:45:00,
2017-06-26 02:51:00,69.3,49.3,29.98,NNE,17,8.1,8.1,49,0.00,,,0.00,0.0,meteobridge,2017-06-26 06:51:00,
2017-06-26 02:56:00,69.3,49.3,29.98,North,10,2.9,8.0,49,0.00,,,0.00,0.0,meteobridge,2017-06-26 06:56:00,
2017-06-26 03:01:00,69.1,49.1,29.98,NNE,13,6.0,7.0,49,0.00,,,0.00,0.0,meteobridge,2017-06-26 07:01:00,
2017-06-26 03:06:00,69.1,49.6,29.99,North,9,2.9,7.0,50,0.00,,,0.00,0.0,meteobridge,2017-06-26 07:06:00,
2017-06-26 03:11:00,69.1,49.6,29.99,North,5,2.0,7.0,50,0.00,,,0.00,0.0,meteobridge,2017-06-26 07:11:00,
2017-06-26 03:16:00,68.9,49.5,29.99,NNW,332,0.0,6.0,50,0.00,,,0.00,0.0,meteobridge,2017-06-26 07:16:00,
2017-06-26 03:21:00,68.7,49.3,29.99,North,354,2.9,7.0,50,0.00,,,0.00,0.0,meteobridge,2017-06-26 07:21:00,
2017-06-26 03:26:00,68.7,49.3,29.99,NNW,331,2.9,6.0,50,0.00,,,0.00,0.0,meteobridge,2017-06-26 07:26:00,
2017-06-26 03:31:00,68.5,49.1,29.99,North,354,2.0,7.0,50,0.00,,,0.00,0.0,meteobridge,2017-06-26 07:31:00,
2017-06-26 03:36:00,68.5,49.1,29.99,NNW,332,4.0,7.0,50,0.00,,,0.00,0.0,meteobridge,2017-06-26 07:36:00,
2017-06-26 03:41:00,68.4,48.9,29.99,NW,315,4.9,7.0,50,0.00,,,0.00,0.0,meteobridge,2017-06-26 07:41:00,
2017-06-26 03:46:00,68.4,48.9,30.00,NNW,335,2.0,5.0,50,0.00,,,0.00,0.0,meteobridge,2017-06-26 07:46:00,
2017-06-26 03:51:00,68.2,49.3,30.00,NW,310,4.0,5.0,51,0.00,,,0.00,0.0,meteobridge,2017-06-26 07:51:00,
2017-06-26 03:56:00,68.2,49.3,30.00,NNW,339,4.0,5.0,51,0.00,,,0.00,0.0,meteobridge,2017-06-26 07:56:00,
2017-06-26 04:01:00,68.0,49.3,30.00,NW,308,4.0,6.0,51,0.00,,,0.00,0.0,meteobridge,2017-06-26 08:01:00,
2017-06-26 04:06:00,67.8,49.1,30.00,NNW,335,6.0,6.0,51,0.00,,,0.00,0.0,meteobridge,2017-06-26 08:06:00,
2017-06-26 04:11:00,67.6,49.5,29.99,NW,308,4.9,6.0,52,0.00,,,0.00,0.0,meteobridge,2017-06-26 08:11:00,
2017-06-26 04:16:00,67.6,49.5,30.00,NW,316,2.9,6.0,52,0.00,,,0.00,0.0,meteobridge,2017-06-26 08:16:00,
2017-06-26 04:21:00,67.6,49.5,30.00,NW,313,4.0,5.0,52,0.00,,,0.00,0.0,meteobridge,2017-06-26 08:21:00,
2017-06-26 04:26:00,67.5,49.8,30.00,NNW,335,4.9,9.0,53,0.00,,,0.00,0.0,meteobridge,2017-06-26 08:26:00,
2017-06-26 04:31:00,67.5,49.8,29.99,NW,308,6.0,10.0,53,0.00,,,0.00,0.0,meteobridge,2017-06-26 08:31:00,
2017-06-26 04:36:00,67.3,49.6,30.00,NW,313,6.0,8.0,53,0.00,,,0.00,0.0,meteobridge,2017-06-26 08:36:00,
2017-06-26 04:41:00,67.3,50.0,30.00,NW,323,6.0,8.0,54,0.00,,,0.00,0.0,meteobridge,2017-06-26 08:41:00,
2017-06-26 04:46:00,67.3,50.0,30.00,NW,314,4.9,7.0,54,0.00,,,0.00,0.0,meteobridge,2017-06-26 08:46:00,
2017-06-26 04:51:00,66.9,49.3,30.00,NW,320,4.0,7.0,53,0.00,,,0.00,0.0,meteobridge,2017-06-26 08:51:00,
2017-06-26 04:56:00,66.9,49.3,30.00,NNW,337,4.0,7.0,53,0.00,,,0.00,0.0,meteobridge,2017-06-26 08:56:00,
2017-06-26 05:01:00,66.9,49.3,30.00,NNW,336,6.0,7.0,53,0.00,,,0.00,0.0,meteobridge,2017-06-26 09:01:00,
2017-06-26 05:06:00,66.9,49.3,30.00,NW,305,4.0,7.0,53,0.00,,,0.00,0.0,meteobridge,2017-06-26 09:06:00,
2017-06-26 05:11:00,66.9,49.3,30.00,NNW,339,4.0,5.0,53,0.00,,,0.00,0.0,meteobridge,2017-06-26 09:11:00,
2017-06-26 05:17:00,66.9,49.3,30.00,NNW,344,2.0,5.0,53,0.00,,,0.00,0.0,meteobridge,2017-06-26 09:17:00,